Change the Weather History Date:

Thursday, January 23, 2014

  Actual Average (KCGS) Record (KCGS)
Temperature  
Mean Temperature 11 °F -  
Max Temperature 21 °F 43 °F 72 °F (1967)
Min Temperature 1 °F 26 °F 3 °F (1961)
Degree Days  
Heating Degree Days 54    
Moisture  
Dew Point 0 °F    
Average Humidity 59    
Maximum Humidity 92    
Minimum Humidity 42    
Precipitation  
Precipitation 0.01 in - - ()
Sea Level Pressure  
Sea Level Pressure 30.24 in    
Wind  
Wind Speed 5 mph (West)    
Max Wind Speed 22 mph    
Max Gust Speed 29 mph    
Visibility 10 miles    
Events      
Averages and records for this station are not official NWS values.
T = Trace of Precipitation, MM = Missing Value Source: NWS Daily Summary

Daily Weather History Graph

Daily Weather History Graph

Search for Another Location

Airport or City:

Trip Planner

Search our weather history database for the weather conditions in past years. The results will help you decide how hot, cold, wet, or windy it might be!

Date:

Astronomy

Jan. 23, 2014 Rise Set
Actual Time 7:22 AM EST 5:19 PM EST
Civil Twilight 6:53 AM EST 5:47 PM EST
Nautical Twilight 6:21 AM EST 6:20 PM EST
Astronomical Twilight 5:49 AM EST 6:52 PM EST
Moon No Moon Rise 10:59 AM EST (1/23)
Length of Visible Light 10h 54m
Length of Day
9h 56m
Waning Gibbous, 55% of the Moon is Illuminated
Jan 23
Waning Gibbous
Jan 24
Last Quarter
Jan 30
New
Feb 6
First Quarter
Feb 14
Full

Hourly Weather History & Observations

Time (EST) Temp. Windchill Dew Point Humidity Pressure Visibility Wind Dir Wind Speed Gust Speed Precip Events Conditions
12:15 AM 10.4 °F 0.8 °F -4.0 °F 52% 30.09 in 10.0 mi NW 5.8 mph - N/A   Overcast
12:35 AM 10.4 °F 0.8 °F -4.0 °F 52% 30.09 in 10.0 mi NW 5.8 mph - N/A   Overcast
12:55 AM 10.4 °F 0.8 °F -4.0 °F 52% 30.09 in 10.0 mi WNW 5.8 mph - N/A   Overcast
1:15 AM 10.4 °F 0.8 °F -4.0 °F 52% 30.09 in 10.0 mi WNW 5.8 mph - N/A   Overcast
1:35 AM 8.6 °F 0.1 °F -5.8 °F 52% 30.09 in 10.0 mi WNW 4.6 mph - N/A   Mostly Cloudy
1:55 AM 8.6 °F - -4.0 °F 57% 30.10 in 10.0 mi Calm Calm - N/A   Overcast
2:15 AM 8.6 °F 2.0 °F -2.2 °F 62% 30.11 in 10.0 mi West 3.5 mph - N/A   Overcast
2:35 AM 8.6 °F 2.0 °F -4.0 °F 57% 30.12 in 10.0 mi West 3.5 mph - N/A   Mostly Cloudy
2:55 AM 8.6 °F 2.0 °F -2.2 °F 62% 30.12 in 10.0 mi WNW 3.5 mph - N/A   Overcast
3:15 AM 8.6 °F - -2.2 °F 62% 30.13 in 10.0 mi Calm Calm - N/A   Overcast
3:35 AM 8.6 °F - -0.4 °F 67% 30.12 in 10.0 mi Calm Calm - N/A   Overcast
3:55 AM 8.6 °F - -2.2 °F 62% 30.13 in 10.0 mi Calm Calm - N/A   Mostly Cloudy
4:15 AM 6.8 °F - -0.4 °F 72% 30.13 in 10.0 mi Calm Calm - N/A   Partly Cloudy
4:35 AM 6.8 °F - -2.2 °F 67% 30.13 in 10.0 mi Calm Calm - N/A   Scattered Clouds
4:55 AM 6.8 °F - -0.4 °F 72% 30.13 in 10.0 mi Calm Calm - N/A   Partly Cloudy
5:15 AM 3.2 °F - -2.2 °F 78% 30.14 in 10.0 mi Calm Calm - N/A   Clear
5:35 AM 3.2 °F - -0.4 °F 85% 30.15 in 10.0 mi Calm Calm - N/A   Clear
5:55 AM 3.2 °F - -2.2 °F 78% 30.15 in 10.0 mi Calm Calm - N/A   Partly Cloudy
6:15 AM 1.4 °F - -0.4 °F 92% 30.15 in 10.0 mi Calm Calm - N/A   Partly Cloudy
6:35 AM 3.2 °F - -0.4 °F 85% 30.16 in 10.0 mi Calm Calm - N/A   Partly Cloudy
6:55 AM 1.4 °F - -2.2 °F 85% 30.16 in 10.0 mi Calm Calm - N/A   Partly Cloudy
7:15 AM 1.4 °F - -0.4 °F 92% 30.17 in 10.0 mi Calm Calm - N/A   Clear
7:35 AM 1.4 °F - -2.2 °F 85% 30.18 in 10.0 mi Calm Calm - N/A   Clear
7:55 AM 1.4 °F - -2.2 °F 85% 30.17 in 10.0 mi Calm Calm - N/A   Clear
8:15 AM 3.2 °F - 1.4 °F 92% 30.18 in 10.0 mi Calm Calm - N/A   Clear
8:35 AM 6.8 °F - 1.4 °F 79% 30.18 in 10.0 mi Calm Calm - N/A   Clear
8:55 AM 10.4 °F - 1.4 °F 67% 30.19 in 10.0 mi Calm Calm - N/A   Clear
9:15 AM 10.4 °F 4.0 °F -0.4 °F 62% 30.19 in 10.0 mi WNW 3.5 mph - N/A   Partly Cloudy
9:35 AM 12.2 °F - 1.4 °F 62% 30.21 in 10.0 mi Calm Calm - N/A   Scattered Clouds
9:55 AM 15.8 °F 6.1 °F -0.4 °F 49% 30.21 in 10.0 mi West 6.9 mph - N/A   Mostly Cloudy
10:15 AM 15.8 °F 6.1 °F -2.2 °F 45% 30.22 in 10.0 mi West 6.9 mph - N/A   Clear
10:35 AM 15.8 °F 10.2 °F -0.4 °F 49% 30.22 in 10.0 mi West 3.5 mph - N/A   Clear
10:55 AM 17.6 °F 10.7 °F -0.4 °F 45% 30.22 in 10.0 mi WSW 4.6 mph - N/A   Clear
11:15 AM 17.6 °F - -0.4 °F 45% 30.23 in 10.0 mi Calm Calm - N/A   Partly Cloudy
11:35 AM 17.6 °F 9.3 °F 1.4 °F 49% 30.23 in 10.0 mi WSW 5.8 mph - N/A   Mostly Cloudy
11:55 AM 17.6 °F 12.3 °F 1.4 °F 49% 30.22 in 10.0 mi West 3.5 mph - N/A   Overcast
12:15 PM 17.6 °F 10.7 °F 1.4 °F 49% 30.21 in 10.0 mi WSW 4.6 mph - N/A   Overcast
12:35 PM 19.4 °F 8.6 °F 6.8 °F 58% 30.21 in 10.0 mi West 9.2 mph - N/A   Overcast
12:55 PM 19.4 °F 7.9 °F 8.6 °F 63% 30.21 in 3.0 mi WNW 10.4 mph - N/A   Overcast
1:15 PM 17.6 °F 5.7 °F 10.4 °F 73% 30.21 in 6.0 mi West 10.4 mph - N/A   Mostly Cloudy
1:35 PM 19.4 °F 8.6 °F 10.4 °F 68% 30.21 in 10.0 mi West 9.2 mph - N/A   Scattered Clouds
1:55 PM 19.4 °F 7.9 °F 8.6 °F 63% 30.21 in 10.0 mi West 10.4 mph - N/A   Mostly Cloudy
2:15 PM 19.4 °F 6.6 °F 8.6 °F 63% 30.22 in 6.0 mi West 12.7 mph - N/A   Mostly Cloudy
2:35 PM 19.4 °F 6.6 °F 6.8 °F 58% 30.22 in 10.0 mi WNW 12.7 mph 17.3 mph N/A   Partly Cloudy
2:55 PM 21.2 °F 5.2 °F 3.2 °F 46% 30.22 in 7.0 mi WNW 21.9 mph 28.8 mph N/A   Clear
3:15 PM 19.4 °F 6.0 °F 3.2 °F 49% 30.24 in 10.0 mi West 13.8 mph 23.0 mph N/A   Mostly Cloudy
3:35 PM 19.4 °F 6.6 °F -0.4 °F 42% 30.25 in 10.0 mi West 12.7 mph 23.0 mph N/A   Overcast
3:55 PM 19.4 °F 5.5 °F -0.4 °F 42% 30.26 in 10.0 mi West 15.0 mph 26.5 mph N/A   Mostly Cloudy
4:15 PM 19.4 °F 5.0 °F -0.4 °F 42% 30.27 in 10.0 mi West 16.1 mph 23.0 mph N/A   Scattered Clouds
4:35 PM 17.6 °F 2.7 °F -0.4 °F 45% 30.28 in 10.0 mi WNW 16.1 mph 24.2 mph N/A   Partly Cloudy
4:55 PM 17.6 °F 2.7 °F 1.4 °F 49% 30.30 in 10.0 mi WNW 16.1 mph 25.3 mph N/A   Clear
5:15 PM 17.6 °F 3.7 °F 1.4 °F 49% 30.31 in 10.0 mi WNW 13.8 mph 19.6 mph N/A   Mostly Cloudy
5:35 PM 17.6 °F 4.3 °F 3.2 °F 53% 30.32 in 10.0 mi West 12.7 mph 16.1 mph N/A   Overcast
5:55 PM 15.8 °F 2.1 °F -0.4 °F 49% 30.33 in 10.0 mi West 12.7 mph 19.6 mph N/A   Scattered Clouds
6:15 PM 15.8 °F 4.2 °F 1.4 °F 53% 30.35 in 10.0 mi West 9.2 mph 20.7 mph N/A   Partly Cloudy
6:35 PM 15.8 °F 4.2 °F 1.4 °F 53% 30.36 in 10.0 mi West 9.2 mph - N/A   Clear
6:55 PM 15.8 °F 2.7 °F 1.4 °F 53% 30.37 in 10.0 mi West 11.5 mph 16.1 mph N/A   Clear
7:15 PM 14.0 °F -0.2 °F 1.4 °F 57% 30.37 in 10.0 mi West 12.7 mph - N/A   Clear
7:35 PM 14.0 °F -0.2 °F 1.4 °F 57% 30.38 in 10.0 mi West 12.7 mph - N/A   Clear
7:55 PM 14.0 °F 0.5 °F -0.4 °F 53% 30.38 in 10.0 mi West 11.5 mph 18.4 mph N/A   Clear
8:15 PM 12.2 °F 0.7 °F -0.4 °F 57% 30.40 in 10.0 mi West 8.1 mph - N/A   Clear
8:35 PM 12.2 °F 2.9 °F -0.4 °F 57% 30.40 in 10.0 mi West 5.8 mph - N/A   Clear
8:55 PM 12.2 °F 2.9 °F -2.2 °F 53% 30.41 in 10.0 mi WNW 5.8 mph - N/A   Clear
9:15 PM 12.2 °F 1.7 °F -2.2 °F 53% 30.41 in 10.0 mi West 6.9 mph - N/A   Partly Cloudy
9:35 PM 12.2 °F -0.2 °F -4.0 °F 48% 30.42 in 10.0 mi WNW 9.2 mph 16.1 mph N/A   Clear
9:55 PM 10.4 °F -2.4 °F -5.8 °F 48% 30.42 in 10.0 mi WNW 9.2 mph - N/A   Clear
10:15 PM 10.4 °F -5.4 °F -4.0 °F 52% 30.42 in 10.0 mi WNW 13.8 mph - N/A   Clear
10:35 PM 10.4 °F -4.1 °F -2.2 °F 57% 30.42 in 10.0 mi NW 11.5 mph - N/A   Clear
10:55 PM 10.4 °F -4.1 °F -5.8 °F 48% 30.42 in 10.0 mi WNW 11.5 mph - N/A   Clear
11:15 PM 10.4 °F -0.4 °F -4.0 °F 52% 30.43 in 10.0 mi West 6.9 mph - N/A   Clear
11:35 PM 10.4 °F -0.4 °F -5.8 °F 48% 30.43 in 10.0 mi West 6.9 mph - N/A   Clear
11:55 PM 8.6 °F -5.5 °F -5.8 °F 52% 30.42 in 10.0 mi WNW 10.4 mph - N/A   Clear